When you browse on this site, cookies collect data to enhance your experience and personalize the content and advertising you see.
Visit our Privacy Policy to learn more. By continuing to use the site, you agree to this use of cookies and data.
  • In United Kingdom
  • List of Countries
  • For 7 days
  • Water Temperature
  • Weather Map
  • Weather Widgets
  • user-avatar
    Login

    Hourly Weather Gürsu

    Today, 10 December, Tuesday

    Time Temperature Precipitation Wind Pressure Humidity
    00:00 +7°C° 0 mm 2 mps 750 mmHg 73%
    01:00 +8°C° 0 mm 1 mps 750 mmHg 73%
    02:00 +7°C° 0 mm 1 mps 750 mmHg 73%
    03:00 +7°C° 0 mm 1 mps 750 mmHg 73%
    04:00 +7°C° 0 mm 1 mps 750 mmHg 73%
    05:00 +6°C° 0 mm 2 mps 750 mmHg 73%
    06:00 +6°C° 0 mm 2 mps 750 mmHg 73%
    07:00 +7°C° 0 mm 1 mps 750 mmHg 73%
    08:00 +7°C° 0 mm 1 mps 750 mmHg 72%
    09:00 +8°C° 0 mm 2 mps 750 mmHg 66%
    10:00 +10°C° 0 mm 2 mps 750 mmHg 59%
    11:00 +13°C° 0 mm 2 mps 750 mmHg 52%
    12:00 +13°C° 0 mm 2 mps 749 mmHg 50%
    13:00 +14°C° 0 mm 2 mps 749 mmHg 47%
    14:00 +15°C° 0 mm 1 mps 748 mmHg 45%
    15:00 +13°C° 0 mm 1 mps 748 mmHg 51%
    16:00 +12°C° 0 mm 1 mps 748 mmHg 56%
    17:00 +11°C° 0 mm 1 mps 749 mmHg 62%
    18:00 +10°C° 0 mm 1 mps 749 mmHg 62%
    19:00 +9°C° 0 mm 2 mps 749 mmHg 63%
    20:00 +9°C° 0 mm 2 mps 749 mmHg 63%
    21:00 +9°C° 0 mm 2 mps 749 mmHg 64%
    22:00 +8°C° 0 mm 2 mps 749 mmHg 64%
    23:00 +8°C° 0 mm 2 mps 749 mmHg 65%

    Tomorrow, 11 December, Wednesday

    Time Temperature Precipitation Wind Pressure Humidity
    00:00 +8°C° 0 mm 2 mps 749 mmHg 65%
    01:00 +8°C° 0 mm 2 mps 750 mmHg 64%
    02:00 +8°C° 0 mm 2 mps 750 mmHg 64%
    03:00 +8°C° 0 mm 2 mps 749 mmHg 66%
    04:00 +8°C° 0 mm 2 mps 749 mmHg 67%
    05:00 +8°C° 0 mm 2 mps 749 mmHg 69%
    06:00 +8°C° 0 mm 2 mps 749 mmHg 70%
    07:00 +8°C° 0 mm 2 mps 749 mmHg 72%
    08:00 +9°C° 0 mm 2 mps 749 mmHg 73%
    09:00 +10°C° 0 mm 2 mps 749 mmHg 71%
    10:00 +11°C° 0 mm 3 mps 748 mmHg 69%
    11:00 +13°C° 0 mm 3 mps 748 mmHg 66%
    12:00 +14°C° 0.2 mm 2 mps 748 mmHg 69%
    13:00 +14°C° 0.2 mm 2 mps 747 mmHg 72%
    14:00 +14°C° 0.2 mm 2 mps 747 mmHg 75%
    15:00 +13°C° 0.1 mm 2 mps 747 mmHg 77%
    16:00 +13°C° 0.1 mm 2 mps 747 mmHg 79%
    17:00 +12°C° 0.1 mm 2 mps 747 mmHg 81%
    18:00 +12°C° 0.1 mm 2 mps 747 mmHg 82%
    19:00 +12°C° 0.1 mm 2 mps 747 mmHg 82%
    20:00 +10°C° 0.1 mm 2 mps 747 mmHg 83%
    21:00 +10°C° 0.1 mm 2 mps 747 mmHg 83%
    22:00 +10°C° 0.1 mm 2 mps 746 mmHg 83%
    23:00 +10°C° 0.1 mm 2 mps 746 mmHg 83%

    Day after tomorrow, 12 December, Thursday

    Time Temperature Precipitation Wind Pressure Humidity
    00:00 +10°C° 0 mm 2 mps 746 mmHg 83%
    01:00 +10°C° 0 mm 2 mps 746 mmHg 83%
    02:00 +10°C° 0 mm 2 mps 745 mmHg 83%
    03:00 +9°C° 0 mm 2 mps 745 mmHg 84%
    04:00 +9°C° 0 mm 2 mps 745 mmHg 84%
    05:00 +9°C° 0 mm 2 mps 744 mmHg 85%
    06:00 +9°C° 0 mm 2 mps 744 mmHg 84%
    07:00 +10°C° 0 mm 2 mps 745 mmHg 84%
    08:00 +10°C° 0 mm 2 mps 745 mmHg 83%
    09:00 +12°C° 0 mm 2 mps 745 mmHg 79%
    10:00 +13°C° 0 mm 2 mps 744 mmHg 75%
    11:00 +14°C° 0 mm 2 mps 744 mmHg 71%
    12:00 +15°C° 0.1 mm 2 mps 744 mmHg 69%
    13:00 +15°C° 0.1 mm 1 mps 744 mmHg 66%
    14:00 +16°C° 0.1 mm 1 mps 743 mmHg 64%
    15:00 +15°C° 0 mm 1 mps 743 mmHg 70%
    16:00 +13°C° 0 mm 1 mps 743 mmHg 76%
    17:00 +11°C° 0 mm 0 mps 743 mmHg 82%
    18:00 +11°C° 0 mm 0 mps 743 mmHg 82%
    19:00 +11°C° 0 mm 0 mps 744 mmHg 82%
    20:00 +10°C° 0 mm 0 mps 744 mmHg 82%
    21:00 +11°C° 0 mm 1 mps 744 mmHg 82%
    22:00 +11°C° 0 mm 1 mps 744 mmHg 82%
    23:00 +11°C° 0 mm 1 mps 744 mmHg 81%

    13 December, Friday

    Time Temperature Precipitation Wind Pressure Humidity
    00:00 +11°C° 0 mm 1 mps 744 mmHg 82%
    01:00 +10°C° 0 mm 1 mps 744 mmHg 82%
    02:00 +10°C° 0 mm 1 mps 744 mmHg 82%
    03:00 +10°C° 0 mm 1 mps 744 mmHg 81%
    04:00 +11°C° 0 mm 1 mps 744 mmHg 79%
    05:00 +11°C° 0 mm 1 mps 744 mmHg 78%
    06:00 +11°C° 0 mm 1 mps 744 mmHg 77%
    07:00 +11°C° 0 mm 1 mps 744 mmHg 76%
    08:00 +11°C° 0 mm 1 mps 744 mmHg 75%
    09:00 +13°C° 0 mm 2 mps 744 mmHg 69%
    10:00 +14°C° 0 mm 2 mps 744 mmHg 64%
    11:00 +16°C° 0 mm 2 mps 744 mmHg 58%
    12:00 +16°C° 0 mm 2 mps 743 mmHg 58%
    13:00 +16°C° 0 mm 2 mps 743 mmHg 58%
    14:00 +16°C° 0 mm 2 mps 743 mmHg 58%
    15:00 +15°C° 0.1 mm 2 mps 743 mmHg 62%
    16:00 +14°C° 0.1 mm 1 mps 743 mmHg 66%
    17:00 +13°C° 0.1 mm 1 mps 743 mmHg 71%
    18:00 +13°C° 0.1 mm 1 mps 743 mmHg 71%
    19:00 +13°C° 0.1 mm 2 mps 743 mmHg 72%
    20:00 +13°C° 0.1 mm 2 mps 743 mmHg 73%
    21:00 +12°C° 0 mm 2 mps 743 mmHg 73%
    22:00 +12°C° 0 mm 2 mps 743 mmHg 74%
    23:00 +12°C° 0 mm 2 mps 743 mmHg 74%

    14 December, Saturday

    Time Temperature Precipitation Wind Pressure Humidity
    00:00 +12°C° 0 mm 2 mps 743 mmHg 75%
    01:00 +10°C° 0 mm 2 mps 743 mmHg 75%
    02:00 +10°C° 0 mm 3 mps 743 mmHg 75%
    03:00 +10°C° 0 mm 3 mps 743 mmHg 76%
    04:00 +10°C° 0 mm 3 mps 742 mmHg 76%
    05:00 +10°C° 0 mm 3 mps 742 mmHg 76%
    06:00 +10°C° 0 mm 3 mps 742 mmHg 76%
    07:00 +10°C° 0 mm 3 mps 743 mmHg 75%
    08:00 +10°C° 0 mm 3 mps 743 mmHg 75%
    09:00 +12°C° 0 mm 3 mps 743 mmHg 69%
    10:00 +14°C° 0 mm 4 mps 742 mmHg 62%
    11:00 +15°C° 0 mm 5 mps 742 mmHg 56%
    12:00 +16°C° 0 mm 5 mps 742 mmHg 54%
    13:00 +16°C° 0 mm 5 mps 741 mmHg 52%
    14:00 +17°C° 0 mm 5 mps 740 mmHg 49%
    15:00 +17°C° 0 mm 4 mps 740 mmHg 52%
    16:00 +16°C° 0 mm 3 mps 740 mmHg 55%
    17:00 +14°C° 0 mm 3 mps 740 mmHg 58%
    18:00 +13°C° 0 mm 3 mps 740 mmHg 60%
    19:00 +13°C° 0 mm 3 mps 741 mmHg 61%
    20:00 +13°C° 0 mm 3 mps 741 mmHg 63%
    21:00 +13°C° 0 mm 2 mps 741 mmHg 65%
    22:00 +13°C° 0 mm 2 mps 742 mmHg 67%
    23:00 +12°C° 0 mm 1 mps 742 mmHg 69%

    15 December, Sunday

    Time Temperature Precipitation Wind Pressure Humidity
    00:00 +12°C° 0 mm 1 mps 742 mmHg 69%
    01:00 +13°C° 0 mm 1 mps 743 mmHg 70%
    02:00 +13°C° 0 mm 1 mps 743 mmHg 71%
    03:00 +12°C° 0 mm 1 mps 744 mmHg 72%
    04:00 +11°C° 0 mm 0 mps 745 mmHg 73%
    05:00 +11°C° 0 mm 0 mps 745 mmHg 74%
    06:00 +12°C° 0 mm 1 mps 746 mmHg 76%
    07:00 +12°C° 0 mm 1 mps 748 mmHg 78%
    08:00 +12°C° 0 mm 1 mps 749 mmHg 80%
    09:00 +13°C° 0 mm 1 mps 749 mmHg 78%
    10:00 +13°C° 0 mm 2 mps 750 mmHg 77%
    11:00 +14°C° 0 mm 2 mps 751 mmHg 75%
    12:00 +14°C° 0 mm 2 mps 751 mmHg 78%
    13:00 +14°C° 0 mm 2 mps 752 mmHg 81%
    14:00 +13°C° 0 mm 2 mps 752 mmHg 85%
    15:00 +13°C° 0 mm 2 mps 753 mmHg 86%
    16:00 +13°C° 0 mm 1 mps 754 mmHg 88%
    17:00 +12°C° 0 mm 1 mps 755 mmHg 90%
    18:00 +12°C° 0 mm 1 mps 755 mmHg 91%
    19:00 +12°C° 0 mm 1 mps 756 mmHg 92%
    20:00 +10°C° 0 mm 0 mps 757 mmHg 93%
    21:00 +10°C° 0 mm 0 mps 757 mmHg 93%
    22:00 +10°C° 0 mm 0 mps 758 mmHg 93%
    23:00 +9°C° 0 mm 0 mps 758 mmHg 93%
    Show more